Location: Black Forest
(43.4794°N, 75.0081°W)
Time: 02:57:21
(UTC-04:00)

ISS - Visible Passes

Search period start: 27 March 2015 00:00
Search period end: 06 April 2015 00:00
Orbit: 396 x 406 km, 51.6° (Epoch: 26 March)

Date Brightness Start Highest point End Pass type
(mag) Time Alt. Az. Time Alt. Az. Time Alt. Az.
27 Mar -1.5 05:03:00 21° NNW 05:04:20 29° NNE 05:07:13 10° E visible
28 Mar -0.6 04:11:55 19° NE 04:11:55 19° NE 04:13:27 10° ENE visible
28 Mar -3.3 05:44:31 11° NW 05:47:36 78° NNE 05:50:49 10° ESE visible
29 Mar -2.4 04:53:33 39° N 04:54:10 45° NNE 04:57:18 10° E visible
30 Mar -0.3 04:02:44 16° ENE 04:02:44 16° ENE 04:03:35 10° E visible
30 Mar -3.1 05:35:21 22° WNW 05:37:09 48° SW 05:40:16 10° SE visible
31 Mar -2.4 04:44:46 41° ESE 04:44:46 41° ESE 04:47:00 10° ESE visible
01 Apr -1.8 05:27:07 21° SSW 05:27:07 21° SSW 05:29:02 10° S visible
02 Apr -0.7 21:09:40 10° SSW 21:09:48 11° SSW 21:09:48 11° SSW visible
03 Apr -1.6 20:17:08 10° S 20:19:09 16° SE 20:19:57 15° ESE visible
03 Apr -0.6 21:51:58 10° WSW 21:52:37 15° WSW 21:52:37 15° WSW visible
04 Apr -3.4 20:58:26 10° SW 21:01:39 64° SE 21:02:25 45° E visible
05 Apr -2.5 20:05:11 10° SSW 20:08:08 33° SE 20:11:08 10° ENE visible
05 Apr -2.0 21:41:25 10° W 21:44:30 38° NNW 21:44:30 38° NNW visible
